Date_and_time,latitude,longitude,wind_speed,RelWindDirFrom,WindDirFrom,air_pressure,air_temperature,relative_humidity,Temp,platform_speed_wrt_ground,air_pressure_at_mean_sea_level,platform_orientation
2019-10-21 00:00,50.6304316666667,-96.9807566666667,5.4,6.9,196,982.26,10.0,75,7.17,0.0,1008.90,12.6
2019-10-21 00:10,50.63043,-96.9807566666667,5.0,6.1,199,982.30,10.0,75,7.18,0.0,1008.95,12.6
2019-10-21 00:20,50.6304316666667,-96.9807533333333,4.9,5.8,194,982.36,9.9,76,7.17,0.0,1009.01,12.6
2019-10-21 00:30,50.6304316666667,-96.9807516666667,4.1,4.8,197,982.39,9.8,76,7.16,0.0,1009.05,12.6
2019-10-21 00:40,50.6304316666667,-96.9807533333333,4.0,4.8,191,982.53,9.6,77,7.16,0.0,1009.20,12.6
2019-10-21 00:50,50.6304333333333,-96.9807533333333,4.1,4.6,176,982.62,9.3,79,7.15,0.0,1009.32,12.6
2019-10-21 01:00,50.630435,-96.9807566666667,5.1,6.5,174,982.66,8.7,85,7.15,0.0,1009.40,14.5
2019-10-21 01:10,50.6304416666667,-96.9807533333333,3.9,4.7,196,982.69,8.5,86,7.14,0.0,1009.46,14.5
2019-10-21 01:20,50.6304366666667,-96.98076,3.8,4.7,194,982.75,8.6,86,7.13,0.0,1009.53,14.5
2019-10-21 01:30,50.630435,-96.9807616666667,3.9,4.8,197,982.77,8.6,86,7.13,0.0,1009.56,14.5
2019-10-21 01:40,50.6304383333333,-96.9807583333333,4.4,5.0,202,982.77,8.6,86,7.13,0.0,1009.56,14.5
2019-10-21 01:50,50.6304383333333,-96.9807616666667,3.9,5.0,210,982.75,8.7,85,7.14,0.0,1009.54,14.5
2019-10-21 02:00,50.6304616666667,-96.9807483333333,2.6,4.5,176,982.83,8.6,87,7.13,0.0,1009.63,360.0
2019-10-21 02:10,50.6304466666667,-96.9807483333333,3.8,5.2,181,982.86,7.9,94,7.12,0.0,1009.69,360.0
2019-10-21 02:20,50.6304433333333,-96.9807516666667,3.9,4.8,188,982.90,7.8,95,7.09,0.0,1009.75,360.0
2019-10-21 02:30,50.6304416666667,-96.980755,5.0,6.4,182,983.02,7.7,97,7.08,0.0,1009.89,360.0
2019-10-21 02:40,50.63044,-96.9807566666667,7.6,9.0,166,983.09,7.4,99,7.09,0.0,1009.99,360.0
2019-10-21 02:50,50.6304366666667,-96.9807566666667,5.5,6.8,198,983.13,7.4,99,7.09,0.0,1010.06,360.0
2019-10-21 03:00,50.630435,-96.9807566666667,5.5,6.7,201,983.19,7.7,99,7.09,0.0,1010.11,38.0
2019-10-21 03:10,50.630435,-96.980765,5.4,6.8,208,983.15,7.9,97,7.07,0.0,1010.06,38.0
2019-10-21 03:20,50.6304333333333,-96.98076,5.4,6.7,210,983.20,8.1,94,7.08,0.0,1010.10,38.0
2019-10-21 03:30,50.6304416666667,-96.9807583333333,5.8,7.3,215,983.27,8.2,92,7.07,0.0,1010.17,38.0
2019-10-21 03:40,50.6304383333333,-96.980765,5.9,8.2,217,983.33,8.1,91,7.06,0.0,1010.23,38.0
2019-10-21 03:50,50.6304366666667,-96.980765,4.8,6.3,221,983.37,7.9,91,7.05,0.0,1010.28,38.0
2019-10-21 04:00,50.6304383333333,-96.980765,4.6,6.0,224,983.40,7.9,90,7.04,0.0,1010.34,347.4
2019-10-21 04:10,50.63044,-96.980765,4.0,5.8,225,983.44,7.9,89,7.04,0.0,1010.39,347.4
2019-10-21 04:20,50.6304383333333,-96.9807616666667,4.0,5.3,226,983.41,7.8,88,7.05,0.0,1010.37,347.4
2019-10-21 04:30,50.6304583333333,-96.9807483333333,4.3,6.3,225,983.48,7.8,86,7.05,0.0,1010.46,347.4
2019-10-21 04:40,50.630445,-96.9807866666667,4.9,6.5,235,983.48,7.8,83,7.06,0.0,1010.46,347.4
2019-10-21 04:50,50.630435,-96.98076,5.0,6.8,243,983.51,7.8,82,7.07,0.0,1010.47,347.4
2019-10-21 05:00,50.6304383333333,-96.980755,5.4,7.0,243,983.58,7.7,81,7.07,0.0,1010.54,360.0
2019-10-21 05:10,50.630435,-96.9807616666667,5.5,7.0,243,983.67,7.6,80,7.06,0.0,1010.63,360.0
2019-10-21 05:20,50.6304366666667,-96.98077,5.4,7.9,244,983.72,7.6,77,7.06,0.0,1010.68,360.0
2019-10-21 05:30,50.6304416666667,-96.9807616666667,5.2,7.2,250,983.71,7.6,75,7.08,0.0,1010.67,360.0
2019-10-21 05:40,50.6304366666667,-96.9807633333333,5.0,7.2,258,983.72,7.7,72,7.11,0.0,1010.69,360.0
2019-10-21 05:50,50.63044,-96.9807516666667,3.8,5.6,270,983.76,7.6,72,7.13,0.0,1010.73,360.0
2019-10-21 06:00,50.6304333333333,-96.9807583333333,4.5,7.2,274,983.84,7.5,72,7.13,0.0,1010.82,142.0
2019-10-21 06:10,50.63042,-96.9807533333333,6.4,8.3,271,983.85,7.4,70,7.12,0.0,1010.84,142.0
2019-10-21 06:20,50.6304216666667,-96.9807566666667,5.2,7.2,278,983.97,7.5,68,7.09,0.0,1010.95,142.0
2019-10-21 06:30,50.630425,-96.9807616666667,4.8,7.2,270,984.06,7.5,68,7.06,0.0,1011.05,142.0
2019-10-21 06:40,50.630425,-96.980765,5.1,8.5,267,984.17,7.3,68,7.05,0.0,1011.18,142.0
2019-10-21 06:50,50.6304233333333,-96.9807666666667,5.9,9.4,288,984.26,7.3,67,7.04,0.0,1011.28,142.0
2019-10-21 07:00,50.6304233333333,-96.9807666666667,7.6,11.2,292,984.24,7.4,65,7.04,0.0,1011.25,161.1
2019-10-21 07:10,50.6304366666667,-96.980765,7.1,10.3,284,984.38,7.3,65,7.04,0.0,1011.40,161.1
2019-10-21 07:20,50.6304333333333,-96.9807566666667,6.9,10.9,292,984.52,7.3,66,7.04,0.0,1011.55,161.1
2019-10-21 07:30,50.63041,-96.98075,8.1,11.1,306,984.47,7.3,68,7.03,0.0,1011.49,161.1
2019-10-21 07:40,50.6304166666667,-96.9807466666667,8.3,12.2,316,984.45,7.2,71,7.04,0.0,1011.48,161.1
2019-10-21 07:50,50.6304216666667,-96.9807466666667,6.9,10.6,298,984.65,7.0,73,7.04,0.0,1011.70,161.1
2019-10-21 08:00,50.630425,-96.9807483333333,8.5,14.7,314,984.52,6.9,75,7.03,0.0,1011.57,156.5
2019-10-21 08:10,50.630425,-96.9807533333333,13.3,18.2,321,983.91,6.9,79,7.04,0.0,1010.94,156.5
2019-10-21 08:20,50.63045,-96.9807833333333,10.5,16.3,313,984.02,6.7,82,7.04,0.0,1011.06,156.5
2019-10-21 08:30,50.6304383333333,-96.9807616666667,9.9,14.5,329,984.16,6.6,85,7.03,0.0,1011.22,156.5
2019-10-21 08:40,50.6304383333333,-96.98076,10.9,16.8,347,984.12,6.6,89,7.04,0.0,1011.18,156.5
2019-10-21 08:50,50.63044,-96.9807566666667,12.0,16.6,2,984.05,6.7,91,7.04,0.0,1011.10,156.5
2019-10-21 09:00,50.6304383333333,-96.980755,12.4,17.5,346,983.74,6.6,92,7.04,0.0,1010.79,360.0
2019-10-21 09:10,50.63044,-96.980755,13.3,19.7,343,983.46,6.4,95,7.04,0.0,1010.52,360.0
2019-10-21 09:20,50.6304383333333,-96.980755,14.0,19.1,344,983.35,6.3,96,7.04,0.0,1010.41,360.0
2019-10-21 09:30,50.6304383333333,-96.9807583333333,15.7,21.2,341,983.16,6.2,98,7.04,0.0,1010.22,360.0
2019-10-21 09:40,50.6304316666667,-96.9807616666667,14.0,18.1,344,983.50,6.2,98,7.05,0.0,1010.58,360.0
2019-10-21 09:50,50.630435,-96.9807633333333,14.2,17.9,342,983.76,6.2,98,7.05,0.0,1010.85,360.0
2019-10-21 10:00,50.6304333333333,-96.980765,14.9,18.2,353,984.03,6.2,97,7.07,0.0,1011.13,38.0
2019-10-21 10:10,50.6304033333333,-96.980755,13.6,18.3,344,984.09,6.1,97,7.06,0.0,1011.21,38.0
2019-10-21 10:20,50.6304266666667,-96.9807516666667,13.6,19.3,349,984.22,6.0,97,7.05,0.0,1011.35,38.0
2019-10-21 10:30,50.6304283333333,-96.9807583333333,13.0,16.1,350,984.38,5.9,98,7.04,0.0,1011.51,38.0
2019-10-21 10:40,50.63043,-96.9807583333333,13.0,17.0,350,984.54,5.8,98,7.02,0.0,1011.68,38.0
2019-10-21 10:50,50.6304316666667,-96.9807583333333,12.9,16.1,345,984.61,5.7,97,7.00,0.0,1011.76,38.0
2019-10-21 11:00,50.6304333333333,-96.98076,12.7,15.7,354,984.89,5.7,96,6.98,0.0,1012.06,311.7
2019-10-21 11:10,50.6304316666667,-96.98076,12.2,15.7,352,985.18,5.8,95,6.97,0.0,1012.35,311.7
2019-10-21 11:20,50.6304316666667,-96.98076,9.3,12.3,340,985.38,5.8,93,6.96,0.0,1012.57,311.7
2019-10-21 11:30,50.63043,-96.98076,9.0,15.1,335,985.42,5.7,91,6.96,0.0,1012.61,311.7
2019-10-21 11:40,50.6304433333333,-96.9807633333333,8.1,12.2,326,985.59,5.5,89,6.95,0.0,1012.80,311.7
2019-10-21 11:50,50.6304266666667,-96.980755,10.0,14.0,332,985.56,5.5,88,6.95,0.0,1012.77,311.7
2019-10-21 12:00,50.6304233333333,-96.980755,8.6,14.8,331,985.70,5.5,87,6.96,0.0,1012.92,161.1
2019-10-21 12:10,50.630425,-96.9807583333333,9.0,13.7,328,985.73,5.3,86,6.96,0.0,1012.97,161.1
2019-10-21 12:20,50.6304233333333,-96.9807583333333,9.0,12.6,332,985.73,5.3,86,6.95,0.0,1012.97,161.1
2019-10-21 12:30,50.6304283333333,-96.9807766666667,9.5,13.6,331,985.73,5.3,85,6.96,0.0,1012.97,161.1
2019-10-21 12:40,50.6304316666667,-96.9807783333333,10.2,15.4,336,985.73,5.4,83,6.97,0.0,1012.97,161.1
2019-10-21 12:50,50.6304316666667,-96.9807766666667,12.1,18.4,340,985.72,5.6,81,6.99,0.0,1012.95,161.1
2019-10-21 13:00,50.630435,-96.9807733333333,13.9,18.1,347,985.76,5.7,81,7.02,0.0,1012.98,311.7
2019-10-21 13:10,50.6304333333333,-96.9807716666667,14.2,18.2,354,985.88,5.8,81,7.04,0.0,1013.10,311.7
2019-10-21 13:20,50.6304333333333,-96.9807716666667,14.7,18.9,354,985.91,5.8,81,7.05,0.0,1013.14,311.7
2019-10-21 13:30,50.6304316666667,-96.9807716666667,15.2,19.2,354,985.92,5.8,82,7.06,0.0,1013.16,311.7
2019-10-21 13:40,50.6304466666667,-96.9807833333333,13.7,18.7,350,985.97,5.7,84,7.08,0.0,1013.22,311.7
2019-10-21 13:50,50.6304383333333,-96.9807783333333,14.4,18.4,348,985.97,5.6,84,7.09,0.0,1013.22,311.7
2019-10-21 14:00,50.6304316666667,-96.9807516666667,14.3,18.0,348,985.99,5.6,84,7.07,0.0,1013.25,90.0
2019-10-21 14:10,50.6304283333333,-96.980745,15.7,19.5,345,985.90,5.6,83,7.07,0.0,1013.15,90.0
2019-10-21 14:20,50.63044,-96.9807666666667,14.1,19.2,341,985.86,5.5,83,7.03,0.0,1013.12,90.0
2019-10-21 14:30,50.63043,-96.98076,11.2,14.8,339,986.04,5.4,82,6.98,0.0,1013.30,90.0
2019-10-21 14:40,50.63043,-96.9807633333333,11.0,15.2,339,986.11,5.3,82,6.94,0.0,1013.37,90.0
2019-10-21 14:50,50.6304183333333,-96.9807783333333,11.9,16.1,342,986.08,5.3,83,6.91,0.0,1013.34,90.0
2019-10-21 15:00,50.630415,-96.9807733333333,12.9,17.3,339,985.95,5.3,83,6.90,0.0,1013.20,192.6
2019-10-21 15:10,50.630405,-96.9808,14.0,20.3,343,985.89,5.4,83,6.88,0.0,1013.13,192.6
2019-10-21 15:20,50.6304166666667,-96.9807733333333,13.1,17.4,342,986.02,5.4,82,6.87,0.0,1013.26,192.6
2019-10-21 15:30,50.6304183333333,-96.9807666666667,12.4,17.8,339,986.03,5.4,82,6.86,0.0,1013.28,192.6
2019-10-21 15:40,50.63042,-96.9807666666667,12.6,17.4,341,986.07,5.4,84,6.85,0.0,1013.32,192.6
2019-10-21 15:50,50.6304233333333,-96.98078,11.9,16.7,338,986.06,5.5,84,6.85,0.0,1013.32,192.6
2019-10-21 16:00,50.630425,-96.9807733333333,12.5,17.2,339,985.98,5.4,84,6.87,0.0,1013.23,142.0
2019-10-21 16:10,50.630425,-96.98077,14.9,19.4,344,985.84,5.4,83,6.87,0.0,1013.09,142.0
2019-10-21 16:20,50.630425,-96.98077,15.4,20.6,342,985.76,5.4,81,6.85,0.0,1013.02,142.0
2019-10-21 16:30,50.6304283333333,-96.9807716666667,14.7,18.9,343,985.80,5.4,78,6.84,0.0,1013.07,142.0
2019-10-21 16:40,50.6304383333333,-96.9807566666667,14.4,20.0,340,985.71,5.5,76,6.86,0.0,1012.96,142.0
2019-10-21 16:50,50.6304283333333,-96.9807616666667,13.5,19.0,339,985.58,5.7,75,6.87,0.0,1012.83,142.0
2019-10-21 17:00,50.6304316666667,-96.98076,13.3,18.0,335,985.55,5.7,74,6.87,0.0,1012.79,270.0
2019-10-21 17:10,50.6304333333333,-96.98076,13.6,19.9,331,985.49,5.6,72,6.88,0.0,1012.73,270.0
2019-10-21 17:20,50.6304316666667,-96.9807616666667,15.0,19.4,336,985.41,5.6,71,6.91,0.0,1012.65,270.0
2019-10-21 17:30,50.6304333333333,-96.9807633333333,13.6,16.7,335,985.47,5.7,70,6.94,0.0,1012.70,270.0
2019-10-21 17:40,50.63043,-96.9807616666667,14.1,18.3,334,985.39,5.8,69,6.94,0.0,1012.62,270.0
2019-10-21 17:50,50.63043,-96.9807616666667,14.9,20.5,342,985.36,6.0,68,6.94,0.0,1012.58,270.0
2019-10-21 18:00,50.63043,-96.9807616666667,14.2,20.4,337,985.18,6.4,66,6.95,0.0,1012.37,36.6
2019-10-21 18:10,50.6304283333333,-96.98075,15.0,20.4,340,985.03,6.5,66,6.94,0.0,1012.21,36.6
2019-10-21 18:20,50.6304316666667,-96.98076,13.9,20.1,336,985.04,6.4,67,6.93,0.0,1012.23,36.6
2019-10-21 18:30,50.6304266666667,-96.9807583333333,13.5,17.5,337,985.12,6.3,67,6.94,0.0,1012.30,36.6
2019-10-21 18:40,50.6304283333333,-96.9807666666667,14.5,22.5,338,985.05,6.3,67,6.94,0.0,1012.23,36.6
2019-10-21 18:50,50.6304283333333,-96.9807683333333,15.3,22.1,340,984.96,6.3,67,6.94,0.0,1012.14,36.6
2019-10-21 19:00,50.6304266666667,-96.980765,15.3,20.3,337,984.81,6.4,66,6.95,0.0,1011.98,90.0
2019-10-21 19:10,50.6304283333333,-96.9807633333333,13.9,19.4,337,984.82,6.5,66,6.95,0.0,1011.99,90.0
2019-10-21 19:20,50.63043,-96.9807633333333,12.9,19.2,335,984.81,6.5,66,6.95,0.0,1011.97,90.0
2019-10-21 19:30,50.6304216666667,-96.9807616666667,14.1,20.0,338,984.68,6.5,66,6.96,0.0,1011.84,90.0
2019-10-21 19:40,50.63042,-96.98076,15.2,21.4,342,984.60,6.4,66,6.96,0.0,1011.75,90.0
2019-10-21 19:50,50.6304233333333,-96.98076,12.1,16.3,334,984.52,6.4,66,6.97,0.0,1011.65,90.0
2019-10-21 20:00,50.630425,-96.98076,14.7,20.7,329,984.25,6.2,64,6.97,0.0,1011.38,142.0
2019-10-21 20:10,50.6304266666667,-96.98076,14.0,20.6,328,984.16,6.1,64,6.98,0.0,1011.29,142.0
2019-10-21 20:20,50.63043,-96.98076,14.3,21.7,328,983.99,6.0,64,6.99,0.0,1011.12,142.0
2019-10-21 20:30,50.6304266666667,-96.980765,14.8,20.0,332,983.90,6.0,64,6.98,0.0,1011.03,142.0
2019-10-21 20:40,50.6304183333333,-96.9807633333333,16.2,22.9,336,983.81,6.0,64,6.97,0.0,1010.94,142.0
2019-10-21 20:50,50.6304183333333,-96.980765,15.8,22.6,334,983.71,5.9,65,6.96,0.0,1010.84,142.0
2019-10-21 21:00,50.6304216666667,-96.9807716666667,15.4,22.5,334,983.76,6.0,65,6.95,0.0,1010.89,240.8
2019-10-21 21:10,50.63042,-96.9807716666667,16.5,24.0,337,983.79,5.9,66,6.94,0.0,1010.91,240.8
2019-10-21 21:20,50.63042,-96.98077,14.3,19.2,335,983.88,5.9,67,6.93,0.0,1011.01,240.8
2019-10-21 21:30,50.6304216666667,-96.98077,17.4,26.5,339,983.77,5.9,67,6.93,0.0,1010.90,240.8
2019-10-21 21:40,50.630425,-96.9807683333333,16.0,23.7,335,983.86,5.9,67,6.93,0.0,1010.99,240.8
2019-10-21 21:50,50.6304266666667,-96.9807666666667,14.9,22.7,331,983.94,5.9,67,6.93,0.0,1011.08,240.8
2019-10-21 22:00,50.6304266666667,-96.9807666666667,13.4,20.9,332,984.04,5.9,69,6.92,0.0,1011.20,0.0
2019-10-21 22:10,50.6304283333333,-96.980765,13.3,18.9,330,984.04,5.7,71,6.92,0.0,1011.20,0.0
2019-10-21 22:20,50.6304283333333,-96.980765,16.3,21.6,339,983.96,5.7,71,6.92,0.0,1011.13,0.0
2019-10-21 22:30,50.6304266666667,-96.980765,13.7,20.7,334,983.99,5.7,72,6.93,0.0,1011.16,0.0
2019-10-21 22:40,50.6304266666667,-96.9807633333333,13.9,19.2,332,983.99,5.5,74,6.93,0.0,1011.17,0.0
2019-10-21 22:50,50.6304283333333,-96.9807633333333,14.7,21.3,324,983.90,5.3,75,6.93,0.0,1011.09,0.0
2019-10-21 23:00,50.6304266666667,-96.9807616666667,15.1,23.8,322,983.85,5.1,76,6.93,0.0,1011.04,90.0
2019-10-21 23:10,50.6304283333333,-96.9807616666667,16.8,24.7,321,983.61,4.9,77,6.93,0.0,1010.80,90.0
2019-10-21 23:20,50.6304283333333,-96.9807616666667,16.4,22.5,329,983.82,4.8,78,6.93,0.0,1011.03,90.0
2019-10-21 23:30,50.6304283333333,-96.9807616666667,15.9,27.5,331,983.97,4.6,79,6.92,0.0,1011.19,90.0
2019-10-21 23:40,50.6304266666667,-96.9807633333333,15.3,21.4,328,983.95,4.6,80,6.90,0.0,1011.17,90.0
